Location: Piotrkow Trybunalski
(51.4000°N, 19.6830°E)
Time: 17:21:19
(UTC+01:00)

Explorer 7 - Pass Details

Date: 20 December 2025
Orbit: 433 x 550 km, 50.2° (Epoch: 17 January)

Event Time Altitude Azimuth Distance (km) Brightness Sun altitude
Rises 16:54:02 0° 266° (W) 2,487 11.7 -11.5°
Reaches altitude 10° 16:56:13 10° 264° (W) 1,594 10.5 -11.8°
Maximum altitude 16:59:47 75° 179° (S) 466 6.5 -12.3°
Enters shadow 17:02:13 19° 96° (E) 1,130 7.9 -12.7°
